This demonstration page uses our WeatherBlox Daily Observations layout. Learn more.

38.88101, -77.10428

Hourly Observations for December 11, 2019

Temp ( °F °C ) Dew Point ( °F °C ) Humidity (%) Winds ( mph kmh ) Pressure ( in mb ) Visibility ( mi km ) Precip ( " mm )
12:52 am 00:52 Cloudy with Light Rain 37 2.8 34 1.1 89 89 NNW 21 33 30.2 1023 10 16.0934 0.04 1.016
1:52 am 01:52 Cloudy with Light Rain/Snow 36 2.2 33 0.6 89 89 NNW 13 20 30.24 1024 10 16.0934 0.02 0.508
2:52 am 02:52 Windy with Snow Likely 35 1.7 32 0 89 89 NNW 23 37 30.25 1025 6 9.65604 0.001 0.001
2:58 am 02:58 Windy with Snow Likely 35 1.7 31 -0.6 85 85 NNW 23 37 30.26 1025 3 4.82802 0.001 0.001
3:00 am 03:00 Cloudy with Light Snow 35 1.7 31 -0.6 85 85 NNW 18 30 30.26 1025 1.5 2.41401 0.001 0.001
3:04 am 03:04 Mostly Cloudy with Scattered Snow Showers 34 1.1 32 0 92 92 NNW 16 26 30.26 1025 0.75 1.207005 0.001 0.001
3:07 am 03:07 Cloudy with Snow 34 1.1 32 0 92 92 NNW 14 22 30.27 1025 0.5 0.80467 0.001 0.001
3:10 am 03:10 Cloudy with Snow 33 0.6 32 0 96 96 N 20 31 30.27 1025 0.25 0.402335 0.01 0.254
3:15 am 03:15 Cloudy with Light Snow 33 0.6 32 0 96 96 N 17 28 30.26 1025 2 3.21868 0.02 0.508
3:18 am 03:18 Cloudy with Light Snow 33 0.6 32 0 96 96 N 16 26 30.26 1025 3 4.82802 0.02 0.508
3:31 am 03:31 Cloudy with Light Snow 33 0.6 32 0 96 96 NNW 18 30 30.27 1025 10 16.0934 0.03 0.762
3:52 am 03:52 Cloudy with Light Snow 34 1.1 30 -1.1 85 85 NNW 13 20 30.26 1025 10 16.0934 0.03 0.762
4:52 am 04:52 Cloudy 34 1.1 30 -1.1 85 85 NNW 7 11 30.28 1025 10 16.0934 0.001 0.001
5:52 am 05:52 Cloudy 34 1.1 28 -2.2 79 79 NNW 10 17 30.3 1026 9 14.48406 0.001 0.001
6:52 am 06:52 Cloudy 35 1.7 27 -2.8 72 72 NW 10 17 30.32 1027 10 16.0934 0 0
7:52 am 07:52 Mostly Cloudy 35 1.7 27 -2.8 72 72 NW 6 9 30.36 1028 10 16.0934 0 0
8:52 am 08:52 Mostly Sunny 36 2.2 25 -3.9 64 64 NW 10 17 30.38 1029 10 16.0934 0 0
9:52 am 09:52 Mostly Sunny 37 2.8 24 -4.4 59 59 NW 14 22 30.4 1030 10 16.0934 0 0
10:52 am 10:52 Mostly Sunny 38 3.3 21 -6.1 51 51 WNW 16 26 30.4 1029 10 16.0934 0 0
11:52 am 11:52 Mostly Sunny 38 3.3 18 -7.8 44 44 WNW 14 22 30.38 1029 10 16.0934 0 0
12:52 pm 12:52 Mostly Sunny 39 3.9 17 -8.3 41 41 WNW 16 26 30.37 1029 10 16.0934 0 0
1:52 pm 13:52 Partly Cloudy 41 5 20 -6.7 43 43 NW 12 19 30.37 1028 10 16.0934 0 0
2:52 pm 14:52 Partly Cloudy 41 5 20 -6.7 43 43 VRB 7 11 30.38 1029 10 16.0934 0 0
3:52 pm 15:52 Partly Cloudy 42 5.6 18 -7.8 38 38 W 10 17 30.4 1029 10 16.0934 0 0
4:52 pm 16:52 Partly Cloudy 40 4.4 17 -8.3 40 40 WNW 9 15 30.42 1030 10 16.0934 0 0
5:52 pm 17:52 Mostly Clear 40 4.4 16 -8.9 38 38 WNW 6 9 30.43 1031 10 16.0934 0 0
6:52 pm 18:52 Clear 38 3.3 16 -8.9 41 41 NNW 10 17 30.47 1032 10 16.0934 0 0
7:52 pm 19:52 Clear 37 2.8 16 -8.9 42 42 NNW 12 19 30.5 1033 10 16.0934 0 0
8:52 pm 20:52 Clear 37 2.8 16 -8.9 42 42 WNW 10 17 30.53 1034 10 16.0934 0 0
9:52 pm 21:52 Clear 36 2.2 17 -8.3 46 46 NW 10 17 30.55 1035 10 16.0934 0 0
10:52 pm 22:52 Clear 34 1.1 17 -8.3 50 50 NW 8 13 30.57 1035 10 16.0934 0 0
11:52 pm 23:52 Clear 34 1.1 17 -8.3 50 50 Calm 30.6 1036 10 16.0934 0 0

Powered by AerisWeather